Time,TemperatureF,DewpointF,PressureIn,WindDirection,WindDirectionDegrees,WindSpeedMPH,WindSpeedGustMPH,Humidity,HourlyPrecipIn,Conditions,Clouds,dailyrainin,SoftwareType,DateUTC
2013-06-12 00:04:00,51.4,48.3,30.05,South,183,0.0,0.0,89,0.06,,FEW,0.00,VWS V14.01,2013-06-12 07:04:00,
2013-06-12 00:09:00,51.3,48.2,30.05,South,183,0.0,0.0,89,0.06,,FEW,0.00,VWS V14.01,2013-06-12 07:09:00,
2013-06-12 00:14:00,51.1,48.0,30.06,South,183,0.0,0.0,89,0.06,,FEW,0.00,VWS V14.01,2013-06-12 07:14:00,
2013-06-12 00:19:00,51.0,48.2,30.06,South,183,0.0,0.0,90,0.06,,FEW,0.00,VWS V14.01,2013-06-12 07:19:00,
2013-06-12 00:24:00,51.0,48.2,30.06,South,183,0.0,0.0,90,0.06,,FEW,0.00,VWS V14.01,2013-06-12 07:24:00,
2013-06-12 00:29:00,50.8,48.0,30.06,South,183,0.0,0.0,90,0.06,,FEW,0.00,VWS V14.01,2013-06-12 07:29:00,
2013-06-12 00:34:00,50.8,48.0,30.06,South,183,0.0,0.0,90,0.00,,FEW,0.00,VWS V14.01,2013-06-12 07:34:00,
2013-06-12 00:40:00,50.7,47.9,30.06,South,183,0.0,0.0,90,0.00,,FEW,0.00,VWS V14.01,2013-06-12 07:40:00,
2013-06-12 00:45:00,50.7,48.2,30.06,South,183,0.0,0.0,91,0.00,,FEW,0.00,VWS V14.01,2013-06-12 07:45:00,
2013-06-12 00:50:00,50.5,48.0,30.06,South,183,0.0,0.0,91,0.00,,FEW,0.00,VWS V14.01,2013-06-12 07:50:00,
2013-06-12 00:55:00,50.5,48.0,30.06,South,183,0.0,0.0,91,0.00,,FEW,0.00,VWS V14.01,2013-06-12 07:55:00,
2013-06-12 01:00:00,50.5,48.0,30.06,South,183,0.0,0.0,91,0.00,,FEW,0.00,VWS V14.01,2013-06-12 08:00:00,
2013-06-12 01:05:00,50.5,48.3,30.06,South,183,0.0,0.0,92,0.00,,FEW,0.00,VWS V14.01,2013-06-12 08:05:00,
2013-06-12 01:10:00,50.7,48.5,30.06,South,183,0.0,0.0,92,0.00,,FEW,0.00,VWS V14.01,2013-06-12 08:10:00,
2013-06-12 01:15:00,50.7,48.5,30.06,South,183,0.0,0.0,92,0.00,,FEW,0.00,VWS V14.01,2013-06-12 08:15:00,
2013-06-12 01:20:00,50.7,48.5,30.06,South,183,0.0,0.0,92,0.00,,FEW,0.00,VWS V14.01,2013-06-12 08:20:00,
2013-06-12 01:25:00,50.7,48.5,30.06,South,183,0.0,0.0,92,0.00,,FEW,0.00,VWS V14.01,2013-06-12 08:25:00,
2013-06-12 01:30:00,50.5,48.3,30.06,South,183,0.0,0.0,92,0.00,,FEW,0.00,VWS V14.01,2013-06-12 08:30:00,
2013-06-12 01:35:00,50.5,48.3,30.06,South,183,0.0,0.0,92,0.00,,FEW,0.00,VWS V14.01,2013-06-12 08:35:00,
2013-06-12 01:40:00,50.4,48.2,30.06,South,183,0.0,0.0,92,0.00,,FEW,0.00,VWS V14.01,2013-06-12 08:40:00,
2013-06-12 01:45:00,50.4,48.2,30.06,South,183,0.0,0.0,92,0.00,,FEW,0.00,VWS V14.01,2013-06-12 08:45:00,
2013-06-12 01:50:00,50.2,48.0,30.06,South,183,0.0,0.0,92,0.00,,FEW,0.00,VWS V14.01,2013-06-12 08:50:00,
2013-06-12 01:55:00,50.2,48.0,30.06,South,183,0.0,0.0,92,0.00,,FEW,0.00,VWS V14.01,2013-06-12 08:55:00,
2013-06-12 02:00:00,50.1,47.9,30.05,South,183,0.0,0.0,92,0.00,,FEW,0.00,VWS V14.01,2013-06-12 09:00:00,
2013-06-12 02:05:00,49.9,47.7,30.05,South,183,0.0,0.0,92,0.00,,FEW,0.00,VWS V14.01,2013-06-12 09:05:00,
2013-06-12 02:10:00,49.9,48.0,30.05,South,183,0.0,0.0,93,0.00,,FEW,0.00,VWS V14.01,2013-06-12 09:10:00,
2013-06-12 02:15:00,49.8,47.9,30.05,South,183,0.0,0.0,93,0.00,,FEW,0.00,VWS V14.01,2013-06-12 09:15:00,
2013-06-12 02:20:00,49.8,47.9,30.05,South,183,0.0,0.0,93,0.00,,FEW,0.00,VWS V14.01,2013-06-12 09:20:00,
2013-06-12 02:25:00,49.6,47.7,30.05,South,183,0.0,0.0,93,0.00,,FEW,0.00,VWS V14.01,2013-06-12 09:25:00,
2013-06-12 02:30:00,49.6,47.7,30.05,South,183,0.0,0.0,93,0.00,,FEW,0.00,VWS V14.01,2013-06-12 09:30:00,
2013-06-12 02:35:00,49.6,47.7,30.05,South,183,0.0,0.0,93,0.00,,FEW,0.00,VWS V14.01,2013-06-12 09:35:00,
2013-06-12 02:40:00,49.6,47.7,30.05,South,183,0.0,0.0,93,0.00,,FEW,0.00,VWS V14.01,2013-06-12 09:40:00,
2013-06-12 02:45:00,49.6,47.7,30.05,South,183,0.0,0.0,93,0.00,,FEW,0.00,VWS V14.01,2013-06-12 09:45:00,
2013-06-12 02:50:00,49.6,47.7,30.05,South,183,0.0,0.0,93,0.00,,FEW,0.00,VWS V14.01,2013-06-12 09:50:00,
2013-06-12 02:55:00,49.8,47.9,30.05,South,183,0.0,0.0,93,0.00,,FEW,0.00,VWS V14.01,2013-06-12 09:55:00,
2013-06-12 03:00:00,49.8,47.9,30.04,South,183,0.0,0.0,93,0.00,,FEW,0.00,VWS V14.01,2013-06-12 10:00:00,
2013-06-12 03:05:00,49.8,47.9,30.04,South,183,0.0,0.0,93,0.00,,FEW,0.00,VWS V14.01,2013-06-12 10:05:00,
2013-06-12 03:10:00,49.9,48.2,30.04,South,183,0.0,0.0,94,0.00,,FEW,0.00,VWS V14.01,2013-06-12 10:10:00,
2013-06-12 03:15:00,49.9,48.2,30.04,South,183,0.0,0.0,94,0.00,,FEW,0.00,VWS V14.01,2013-06-12 10:15:00,
2013-06-12 03:20:00,49.9,48.2,30.04,South,183,0.0,0.0,94,0.00,,FEW,0.00,VWS V14.01,2013-06-12 10:20:00,
2013-06-12 03:25:00,49.9,48.2,30.04,South,183,0.0,0.0,94,0.00,,FEW,0.00,VWS V14.01,2013-06-12 10:25:00,
2013-06-12 03:30:00,50.1,48.4,30.04,South,183,0.0,0.0,94,0.00,,FEW,0.00,VWS V14.01,2013-06-12 10:30:00,
2013-06-12 03:35:00,50.1,48.4,30.04,South,183,0.0,0.0,94,0.00,,FEW,0.00,VWS V14.01,2013-06-12 10:35:00,
2013-06-12 03:40:00,50.1,48.4,30.04,South,183,0.0,0.0,94,0.00,,FEW,0.00,VWS V14.01,2013-06-12 10:40:00,
2013-06-12 03:45:00,49.9,48.2,30.04,South,183,0.0,0.0,94,0.00,,FEW,0.00,VWS V14.01,2013-06-12 10:45:00,
2013-06-12 03:50:00,49.9,48.2,30.04,South,183,0.0,0.0,94,0.00,,FEW,0.00,VWS V14.01,2013-06-12 10:50:00,
2013-06-12 03:55:00,49.9,48.2,30.04,South,183,0.0,0.0,94,0.00,,FEW,0.00,VWS V14.01,2013-06-12 10:55:00,
2013-06-12 04:00:00,49.9,48.2,30.04,South,183,0.0,0.0,94,0.00,,FEW,0.00,VWS V14.01,2013-06-12 11:00:00,
2013-06-12 04:05:00,49.8,48.2,30.04,South,183,0.0,0.0,94,0.00,,FEW,0.00,VWS V14.01,2013-06-12 11:05:00,
2013-06-12 04:10:00,49.8,48.2,30.04,South,183,0.0,0.0,94,0.00,,FEW,0.00,VWS V14.01,2013-06-12 11:10:00,
2013-06-12 04:15:00,49.8,48.2,30.04,South,183,0.0,0.0,94,0.00,,FEW,0.00,VWS V14.01,2013-06-12 11:15:00,
2013-06-12 04:20:00,49.8,48.2,30.04,South,183,0.0,0.0,94,0.00,,FEW,0.00,VWS V14.01,2013-06-12 11:20:00,
2013-06-12 04:25:00,49.8,48.2,30.04,South,183,0.0,0.0,94,0.00,,FEW,0.00,VWS V14.01,2013-06-12 11:25:00,
2013-06-12 04:30:00,49.6,48.0,30.04,South,183,0.0,0.0,94,0.00,,FEW,0.00,VWS V14.01,2013-06-12 11:30:00,
2013-06-12 04:35:00,49.6,48.0,30.04,South,183,0.0,0.0,94,0.00,,FEW,0.00,VWS V14.01,2013-06-12 11:35:00,
2013-06-12 04:40:00,49.6,48.0,30.04,South,183,0.0,0.0,94,0.00,,FEW,0.00,VWS V14.01,2013-06-12 11:40:00,
2013-06-12 04:45:00,49.8,48.2,30.05,South,183,0.0,0.0,94,0.00,,FEW,0.00,VWS V14.01,2013-06-12 11:45:00,
2013-06-12 04:50:00,49.8,48.2,30.05,South,183,0.0,0.0,94,0.00,,FEW,0.00,VWS V14.01,2013-06-12 11:50:00,
2013-06-12 04:55:00,49.8,48.2,30.05,South,183,0.0,0.0,94,0.00,,FEW,0.00,VWS V14.01,2013-06-12 11:55:00,
2013-06-12 05:00:00,49.6,48.0,30.05,South,183,0.0,0.0,94,0.00,,FEW,0.00,VWS V14.01,2013-06-12 12:00:00,
2013-06-12 05:05:00,49.6,48.0,30.05,South,183,0.0,0.0,94,0.00,,FEW,0.00,VWS V14.01,2013-06-12 12:05:00,
2013-06-12 05:10:00,49.6,48.0,30.05,South,183,0.0,0.0,94,0.00,,FEW,0.00,VWS V14.01,2013-06-12 12:10:00,
2013-06-12 05:15:00,49.6,48.0,30.05,South,183,0.0,0.0,94,0.00,,FEW,0.00,VWS V14.01,2013-06-12 12:15:00,
2013-06-12 05:20:00,49.5,47.8,30.05,South,183,0.0,0.0,94,0.00,,FEW,0.00,VWS V14.01,2013-06-12 12:20:00,
2013-06-12 05:25:00,49.5,47.8,30.05,South,183,0.0,0.0,94,0.00,,FEW,0.00,VWS V14.01,2013-06-12 12:25:00,
2013-06-12 05:30:00,49.4,47.8,30.05,South,183,0.0,0.0,94,0.00,,FEW,0.00,VWS V14.01,2013-06-12 12:30:00,
2013-06-12 05:35:00,49.4,47.8,30.05,South,183,0.0,0.0,94,0.00,,FEW,0.00,VWS V14.01,2013-06-12 12:35:00,
2013-06-12 05:40:00,49.5,47.8,30.05,South,183,0.0,2.0,94,0.00,,FEW,0.00,VWS V14.01,2013-06-12 12:40:00,
2013-06-12 05:45:00,49.5,47.8,30.04,South,183,0.0,2.0,94,0.00,,FEW,0.00,VWS V14.01,2013-06-12 12:45:00,
2013-06-12 05:50:00,49.5,47.8,30.04,South,183,0.0,2.0,94,0.00,,FEW,0.00,VWS V14.01,2013-06-12 12:50:00,
2013-06-12 05:55:00,49.6,48.0,30.04,South,183,0.0,2.0,94,0.00,,FEW,0.00,VWS V14.01,2013-06-12 12:55:00,
2013-06-12 06:00:00,49.6,48.0,30.05,South,183,0.0,0.0,94,0.00,,FEW,0.00,VWS V14.01,2013-06-12 13:00:00,
2013-06-12 06:05:00,49.6,48.0,30.05,South,183,0.0,0.0,94,0.00,,FEW,0.00,VWS V14.01,2013-06-12 13:05:00,
2013-06-12 06:10:00,49.6,48.0,30.05,South,183,0.0,0.0,94,0.00,,FEW,0.00,VWS V14.01,2013-06-12 13:10:00,
2013-06-12 06:15:00,49.6,48.0,30.05,SE,134,0.0,1.0,94,0.00,,FEW,0.00,VWS V14.01,2013-06-12 13:15:00,
2013-06-12 06:20:00,49.9,48.2,30.05,SE,124,0.0,3.0,94,0.00,,FEW,0.00,VWS V14.01,2013-06-12 13:20:00,
2013-06-12 06:25:00,50.1,48.4,30.05,SE,124,0.0,3.0,94,0.00,,FEW,0.00,VWS V14.01,2013-06-12 13:25:00,
2013-06-12 06:30:00,50.1,48.4,30.05,SE,124,0.0,0.0,94,0.00,,FEW,0.00,VWS V14.01,2013-06-12 13:30:00,
2013-06-12 06:35:00,50.2,48.5,30.05,SE,124,0.0,0.0,94,0.00,,FEW,0.00,VWS V14.01,2013-06-12 13:35:00,
2013-06-12 06:40:00,50.4,48.7,30.05,SE,124,0.0,0.0,94,0.00,,FEW,0.00,VWS V14.01,2013-06-12 13:40:00,
2013-06-12 06:45:00,50.4,48.7,30.06,SE,124,0.0,0.0,94,0.00,,FEW,0.00,VWS V14.01,2013-06-12 13:45:00,
2013-06-12 06:50:00,50.2,48.3,30.06,SE,124,0.0,0.0,93,0.00,,FEW,0.00,VWS V14.01,2013-06-12 13:50:00,
2013-06-12 06:55:00,50.4,48.7,30.06,SE,124,0.0,0.0,94,0.00,,FEW,0.00,VWS V14.01,2013-06-12 13:55:00,
2013-06-12 07:00:00,50.4,48.5,30.06,SE,124,0.0,0.0,93,0.00,,FEW,0.00,VWS V14.01,2013-06-12 14:00:00,
2013-06-12 07:05:00,50.4,48.5,30.06,SE,124,0.0,1.0,93,0.00,,FEW,0.00,VWS V14.01,2013-06-12 14:05:00,
2013-06-12 07:10:00,50.4,48.5,30.06,SE,124,0.0,1.0,93,0.00,,FEW,0.00,VWS V14.01,2013-06-12 14:10:00,
2013-06-12 07:15:00,50.4,47.9,30.06,SE,124,0.0,1.0,91,0.00,,FEW,0.00,VWS V14.01,2013-06-12 14:15:00,
2013-06-12 07:20:00,50.7,47.9,30.06,SE,124,0.0,1.0,90,0.00,,FEW,0.00,VWS V14.01,2013-06-12 14:20:00,
2013-06-12 07:25:00,51.0,48.2,30.06,SE,124,0.0,1.0,90,0.00,,FEW,0.00,VWS V14.01,2013-06-12 14:25:00,
2013-06-12 07:31:00,51.1,48.3,30.05,SE,124,0.0,0.0,90,0.00,,FEW,0.00,VWS V14.01,2013-06-12 14:31:00,
2013-06-12 07:36:00,51.3,48.5,30.05,SE,124,0.0,0.0,90,0.00,,FEW,0.00,VWS V14.01,2013-06-12 14:36:00,
2013-06-12 07:41:00,51.6,48.5,30.05,SE,124,0.0,0.0,89,0.00,,FEW,0.00,VWS V14.01,2013-06-12 14:41:00,
2013-06-12 07:46:00,51.6,47.9,30.05,SE,124,0.0,1.0,87,0.00,,FEW,0.00,VWS V14.01,2013-06-12 14:46:00,
2013-06-12 07:51:00,51.6,47.2,30.05,SE,124,0.0,1.0,85,0.00,,FEW,0.00,VWS V14.01,2013-06-12 14:51:00,
2013-06-12 07:56:00,52.0,48.0,30.05,SE,124,0.0,2.0,86,0.00,,FEW,0.00,VWS V14.01,2013-06-12 14:56:00,
2013-06-12 08:01:00,52.0,47.3,30.05,SE,125,0.0,1.0,84,0.00,,FEW,0.00,VWS V14.01,2013-06-12 15:01:00,
2013-06-12 08:06:00,52.2,46.5,30.05,South,170,0.0,2.0,81,0.00,,FEW,0.00,VWS V14.01,2013-06-12 15:06:00,
2013-06-12 08:11:00,52.5,47.2,30.05,South,170,0.0,2.0,82,0.00,,FEW,0.00,VWS V14.01,2013-06-12 15:11:00,
2013-06-12 08:16:00,52.6,46.3,30.05,South,170,2.0,2.0,79,0.00,,FEW,0.00,VWS V14.01,2013-06-12 15:16:00,
2013-06-12 08:21:00,52.6,45.6,30.05,South,170,2.0,2.0,77,0.00,,FEW,0.00,VWS V14.01,2013-06-12 15:21:00,
2013-06-12 08:26:00,52.9,46.2,30.05,SE,139,0.0,2.0,78,0.00,,FEW,0.00,VWS V14.01,2013-06-12 15:26:00,
2013-06-12 08:31:00,53.2,46.2,30.06,SSE,164,0.0,0.0,77,0.00,,FEW,0.00,VWS V14.01,2013-06-12 15:31:00,
2013-06-12 08:36:00,53.3,45.6,30.06,SE,141,0.0,1.0,75,0.00,,FEW,0.00,VWS V14.01,2013-06-12 15:36:00,
2013-06-12 08:41:00,53.6,46.6,30.06,SE,141,0.0,1.0,77,0.00,,FEW,0.00,VWS V14.01,2013-06-12 15:41:00,
2013-06-12 08:46:00,54.1,46.4,30.06,SE,141,0.0,1.0,75,0.00,,FEW,0.00,VWS V14.01,2013-06-12 15:46:00,
2013-06-12 08:51:00,54.5,46.8,30.06,SSE,155,0.0,2.0,75,0.00,,FEW,0.00,VWS V14.01,2013-06-12 15:51:00,
2013-06-12 08:56:00,54.4,45.6,30.06,South,185,5.0,5.0,72,0.00,,FEW,0.00,VWS V14.01,2013-06-12 15:56:00,
2013-06-12 09:01:00,54.5,44.9,30.06,SSW,210,2.0,4.0,70,0.00,,FEW,0.00,VWS V14.01,2013-06-12 16:01:00,
2013-06-12 09:06:00,54.8,46.3,30.06,SSW,209,0.0,4.0,73,0.00,,FEW,0.00,VWS V14.01,2013-06-12 16:06:00,
2013-06-12 09:11:00,55.3,45.3,30.06,SSW,192,3.0,4.0,69,0.00,,FEW,0.00,VWS V14.01,2013-06-12 16:11:00,
2013-06-12 09:16:00,55.1,45.1,30.06,South,186,1.0,4.0,69,0.00,,FEW,0.00,VWS V14.01,2013-06-12 16:16:00,
2013-06-12 09:21:00,55.1,45.1,30.06,South,187,3.0,6.0,69,0.00,,FEW,0.00,VWS V14.01,2013-06-12 16:21:00,
2013-06-12 09:26:00,55.0,45.8,30.06,SSW,211,1.0,6.0,71,0.00,,FEW,0.00,VWS V14.01,2013-06-12 16:26:00,
2013-06-12 09:31:00,55.0,46.2,30.06,South,183,0.0,1.0,72,0.00,,FEW,0.00,VWS V14.01,2013-06-12 16:31:00,
2013-06-12 09:36:00,54.8,46.0,30.06,South,169,2.0,3.0,72,0.00,,FEW,0.00,VWS V14.01,2013-06-12 16:36:00,
2013-06-12 09:41:00,54.7,45.5,30.06,South,170,1.0,4.0,71,0.00,,FEW,0.00,VWS V14.01,2013-06-12 16:41:00,
2013-06-12 09:46:00,54.7,45.9,30.06,ESE,114,2.0,5.0,72,0.00,,FEW,0.00,VWS V14.01,2013-06-12 16:46:00,
2013-06-12 09:51:00,55.0,45.8,30.06,South,180,4.0,5.0,71,0.00,,FEW,0.00,VWS V14.01,2013-06-12 16:51:00,
2013-06-12 09:56:00,55.1,45.9,30.06,South,185,3.0,6.0,71,0.00,,FEW,0.00,VWS V14.01,2013-06-12 16:56:00,
2013-06-12 10:01:00,55.3,45.3,30.06,South,181,1.0,4.0,69,0.00,,FEW,0.00,VWS V14.01,2013-06-12 17:01:00,
2013-06-12 10:06:00,55.3,44.9,30.06,SSW,196,1.0,7.0,68,0.00,,FEW,0.00,VWS V14.01,2013-06-12 17:06:00,
2013-06-12 10:11:00,55.9,45.1,30.06,NE,41,0.0,7.0,67,0.00,,FEW,0.00,VWS V14.01,2013-06-12 17:11:00,
2013-06-12 10:16:00,56.2,46.2,30.06,SSE,151,1.0,9.0,69,0.00,,FEW,0.00,VWS V14.01,2013-06-12 17:16:00,
2013-06-12 10:21:00,56.3,46.3,30.06,ESE,112,3.0,9.0,69,0.00,,FEW,0.00,VWS V14.01,2013-06-12 17:21:00,
2013-06-12 10:26:00,56.3,47.0,30.06,South,191,4.0,9.0,71,0.00,,FEW,0.00,VWS V14.01,2013-06-12 17:26:00,
2013-06-12 10:31:00,56.3,46.3,30.06,SSE,162,1.0,2.0,69,0.00,,FEW,0.00,VWS V14.01,2013-06-12 17:31:00,
2013-06-12 10:36:00,56.3,45.9,30.06,ESE,114,0.0,4.0,68,0.00,,FEW,0.00,VWS V14.01,2013-06-12 17:36:00,
2013-06-12 10:42:00,56.3,45.9,30.06,South,187,3.0,4.0,68,0.00,,FEW,0.00,VWS V14.01,2013-06-12 17:42:00,
2013-06-12 10:47:00,56.3,45.1,30.06,South,189,2.0,4.0,66,0.00,,FEW,0.00,VWS V14.01,2013-06-12 17:47:00,
2013-06-12 10:52:00,56.7,45.5,30.06,ESE,113,1.0,6.0,66,0.00,,FEW,0.00,VWS V14.01,2013-06-12 17:52:00,
2013-06-12 10:57:00,57.5,45.0,30.06,SSW,194,6.0,9.0,63,0.00,,FEW,0.00,VWS V14.01,2013-06-12 17:57:00,
2013-06-12 11:02:00,57.2,45.6,30.06,SE,136,3.0,5.0,65,0.00,,FEW,0.00,VWS V14.01,2013-06-12 18:02:00,
2013-06-12 11:07:00,57.3,45.7,30.06,SSE,151,2.0,6.0,65,0.00,,FEW,0.00,VWS V14.01,2013-06-12 18:07:00,
2013-06-12 11:12:00,58.0,45.1,30.06,SSW,203,4.0,6.0,62,0.00,,FEW,0.00,VWS V14.01,2013-06-12 18:12:00,
2013-06-12 11:17:00,58.3,45.8,30.05,SSE,155,1.0,6.0,63,0.00,,FEW,0.00,VWS V14.01,2013-06-12 18:17:00,
2013-06-12 11:22:00,58.0,45.5,30.05,SSW,193,5.0,10.0,63,0.00,,FEW,0.00,VWS V14.01,2013-06-12 18:22:00,
2013-06-12 11:27:00,57.5,45.8,30.05,SSW,194,4.0,11.0,65,0.00,,FEW,0.00,VWS V14.01,2013-06-12 18:27:00,
2013-06-12 11:32:00,57.2,45.6,30.05,South,187,2.0,4.0,65,0.00,,FEW,0.00,VWS V14.01,2013-06-12 18:32:00,
2013-06-12 11:37:00,57.2,45.6,30.05,South,190,3.0,6.0,65,0.00,,FEW,0.00,VWS V14.01,2013-06-12 18:37:00,
2013-06-12 11:42:00,57.5,46.2,30.05,SE,133,0.0,6.0,66,0.00,,FEW,0.00,VWS V14.01,2013-06-12 18:42:00,
2013-06-12 11:47:00,57.6,44.3,30.06,South,182,2.0,6.0,61,0.00,,FEW,0.00,VWS V14.01,2013-06-12 18:47:00,
2013-06-12 11:52:00,57.5,44.6,30.06,South,189,2.0,6.0,62,0.00,,FEW,0.00,VWS V14.01,2013-06-12 18:52:00,
2013-06-12 11:57:00,57.6,44.3,30.06,SSW,197,2.0,6.0,61,0.00,,FEW,0.00,VWS V14.01,2013-06-12 18:57:00,
2013-06-12 12:02:00,57.8,44.9,30.05,SSW,197,3.0,6.0,62,0.00,,FEW,0.00,VWS V14.01,2013-06-12 19:02:00,
2013-06-12 12:07:00,58.1,45.2,30.05,SSE,168,1.0,6.0,62,0.00,,FEW,0.00,VWS V14.01,2013-06-12 19:07:00,
2013-06-12 12:12:00,58.6,46.9,30.05,SSE,166,9.0,9.0,65,0.00,,FEW,0.00,VWS V14.01,2013-06-12 19:12:00,
2013-06-12 12:17:00,58.0,47.1,30.05,South,170,6.0,12.0,67,0.00,,FEW,0.00,VWS V14.01,2013-06-12 19:17:00,
2013-06-12 12:22:00,57.3,45.7,30.05,South,184,6.0,12.0,65,0.00,,FEW,0.00,VWS V14.01,2013-06-12 19:22:00,
2013-06-12 12:27:00,57.2,47.1,30.05,South,177,1.0,12.0,69,0.00,,FEW,0.00,VWS V14.01,2013-06-12 19:27:00,
2013-06-12 12:32:00,57.5,46.6,30.06,South,182,1.0,5.0,67,0.00,,FEW,0.00,VWS V14.01,2013-06-12 19:32:00,
2013-06-12 12:38:00,57.5,47.0,30.06,SSW,196,6.0,10.0,68,0.00,,FEW,0.00,VWS V14.01,2013-06-12 19:38:00,
2013-06-12 12:43:00,56.9,46.8,30.06,South,182,5.0,11.0,69,0.00,,FEW,0.00,VWS V14.01,2013-06-12 19:43:00,
2013-06-12 12:48:00,56.3,45.9,30.06,SSW,209,1.0,11.0,68,0.00,,FEW,0.00,VWS V14.01,2013-06-12 19:48:00,
2013-06-12 12:53:00,56.3,46.3,30.06,SSW,192,0.0,11.0,69,0.00,,FEW,0.00,VWS V14.01,2013-06-12 19:53:00,
2013-06-12 12:58:00,56.6,47.3,30.06,SSE,147,1.0,11.0,71,0.00,,FEW,0.00,VWS V14.01,2013-06-12 19:58:00,
2013-06-12 13:03:00,57.5,46.6,30.06,SSE,165,0.0,3.0,67,0.00,,FEW,0.00,VWS V14.01,2013-06-12 20:03:00,
2013-06-12 13:08:00,58.4,47.5,30.06,SSE,153,1.0,5.0,67,0.00,,FEW,0.00,VWS V14.01,2013-06-12 20:08:00,
2013-06-12 13:13:00,59.5,48.5,30.06,South,182,3.0,8.0,67,0.00,,FEW,0.00,VWS V14.01,2013-06-12 20:13:00,
2013-06-12 13:18:00,59.6,46.6,30.05,South,190,2.0,8.0,62,0.00,,FEW,0.00,VWS V14.01,2013-06-12 20:18:00,
2013-06-12 13:23:00,59.5,43.3,30.05,South,189,3.0,9.0,55,0.00,,FEW,0.00,VWS V14.01,2013-06-12 20:23:00,
2013-06-12 13:28:00,60.1,43.9,30.05,South,183,6.0,11.0,55,0.00,,FEW,0.00,VWS V14.01,2013-06-12 20:28:00,
2013-06-12 13:33:00,60.1,46.2,30.04,South,190,4.0,10.0,60,0.00,,FEW,0.00,VWS V14.01,2013-06-12 20:33:00,
2013-06-12 13:38:00,59.3,45.9,30.04,SSW,198,4.0,11.0,61,0.00,,FEW,0.00,VWS V14.01,2013-06-12 20:38:00,
2013-06-12 13:43:00,58.9,45.5,30.04,ESE,120,3.0,16.0,61,0.00,,FEW,0.00,VWS V14.01,2013-06-12 20:43:00,
2013-06-12 13:48:00,59.5,47.3,30.05,South,189,11.0,16.0,64,0.00,,FEW,0.00,VWS V14.01,2013-06-12 20:48:00,
2013-06-12 13:53:00,58.9,45.1,30.05,South,187,3.0,16.0,60,0.00,,FEW,0.00,VWS V14.01,2013-06-12 20:53:00,
2013-06-12 13:58:00,58.9,45.5,30.05,South,185,12.0,16.0,61,0.00,,FEW,0.00,VWS V14.01,2013-06-12 20:58:00,
2013-06-12 14:03:00,59.0,45.6,30.05,South,182,4.0,4.0,61,0.00,,FEW,0.00,VWS V14.01,2013-06-12 21:03:00,
2013-06-12 14:08:00,59.3,45.4,30.05,South,189,6.0,11.0,60,0.00,,FEW,0.00,VWS V14.01,2013-06-12 21:08:00,
2013-06-12 14:13:00,59.5,46.5,30.05,ESE,112,0.0,11.0,62,0.00,,FEW,0.00,VWS V14.01,2013-06-12 21:13:00,
2013-06-12 14:18:00,59.9,45.1,30.04,SSE,162,2.0,11.0,58,0.00,,FEW,0.00,VWS V14.01,2013-06-12 21:18:00,
2013-06-12 14:23:00,60.1,45.7,30.04,SSE,155,0.0,11.0,59,0.00,,FEW,0.00,VWS V14.01,2013-06-12 21:23:00,
2013-06-12 14:28:00,60.7,46.8,30.04,ESE,116,0.0,11.0,60,0.00,,FEW,0.00,VWS V14.01,2013-06-12 21:28:00,
2013-06-12 14:33:00,60.5,44.3,30.04,South,184,3.0,6.0,55,0.00,,FEW,0.00,VWS V14.01,2013-06-12 21:33:00,
2013-06-12 14:38:00,60.4,43.7,30.04,South,190,10.0,10.0,54,0.00,,FEW,0.00,VWS V14.01,2013-06-12 21:38:00,
2013-06-12 14:43:00,61.0,44.2,30.04,SE,132,0.0,10.0,54,0.00,,FEW,0.00,VWS V14.01,2013-06-12 21:43:00,
2013-06-12 14:48:00,62.3,45.0,30.04,South,186,0.0,10.0,53,0.00,,FEW,0.00,VWS V14.01,2013-06-12 21:48:00,
2013-06-12 14:53:00,62.3,45.0,30.04,South,172,0.0,10.0,53,0.00,,FEW,0.00,VWS V14.01,2013-06-12 21:53:00,
2013-06-12 14:58:00,62.4,48.3,30.04,ESE,118,3.0,10.0,60,0.00,,FEW,0.00,VWS V14.01,2013-06-12 21:58:00,
2013-06-12 15:03:00,62.7,47.3,30.04,SSW,206,7.0,11.0,57,0.00,,FEW,0.00,VWS V14.01,2013-06-12 22:03:00,
2013-06-12 15:08:00,61.2,48.5,30.04,South,188,5.0,16.0,63,0.00,,FEW,0.00,VWS V14.01,2013-06-12 22:08:00,
2013-06-12 15:13:00,60.5,47.4,30.04,South,191,1.0,16.0,62,0.00,,FEW,0.00,VWS V14.01,2013-06-12 22:13:00,
2013-06-12 15:18:00,59.5,47.3,30.06,SSW,194,4.0,16.0,64,0.00,,FEW,0.00,VWS V14.01,2013-06-12 22:18:00,
2013-06-12 15:24:00,59.2,47.5,30.06,South,173,2.0,16.0,65,0.00,,FEW,0.00,VWS V14.01,2013-06-12 22:24:00,
2013-06-12 15:29:00,58.9,46.3,30.06,SSW,196,3.0,16.0,63,0.00,,FEW,0.00,VWS V14.01,2013-06-12 22:29:00,
2013-06-12 15:34:00,59.0,46.4,30.06,South,183,3.0,10.0,63,0.00,,FEW,0.00,VWS V14.01,2013-06-12 22:34:00,
2013-06-12 15:39:00,58.9,47.2,30.06,South,187,1.0,10.0,65,0.00,,FEW,0.00,VWS V14.01,2013-06-12 22:39:00,
2013-06-12 15:44:00,58.9,47.6,30.06,SSW,195,6.0,12.0,66,0.00,,FEW,0.00,VWS V14.01,2013-06-12 22:44:00,
2013-06-12 15:49:00,59.0,48.5,30.06,South,176,7.0,12.0,68,0.00,,FEW,0.00,VWS V14.01,2013-06-12 22:49:00,
2013-06-12 15:54:00,59.0,48.5,30.06,South,185,9.0,12.0,68,0.00,,FEW,0.00,VWS V14.01,2013-06-12 22:54:00,
2013-06-12 15:59:00,58.4,47.9,30.07,SSW,195,6.0,12.0,68,0.00,,FEW,0.00,VWS V14.01,2013-06-12 22:59:00,
2013-06-12 16:04:00,57.6,47.1,30.07,South,179,9.0,13.0,68,0.00,,FEW,0.00,VWS V14.01,2013-06-12 23:04:00,
2013-06-12 16:09:00,57.2,47.5,30.07,South,189,10.0,13.0,70,0.00,,FEW,0.00,VWS V14.01,2013-06-12 23:09:00,
2013-06-12 16:14:00,56.9,47.6,30.07,South,169,2.0,13.0,71,0.00,,FEW,0.00,VWS V14.01,2013-06-12 23:14:00,
2013-06-12 16:19:00,56.6,47.3,30.07,SSW,198,1.0,13.0,71,0.00,,FEW,0.00,VWS V14.01,2013-06-12 23:19:00,
2013-06-12 16:24:00,56.6,48.1,30.07,South,186,3.0,13.0,73,0.00,,FEW,0.00,VWS V14.01,2013-06-12 23:24:00,
2013-06-12 16:29:00,57.6,49.4,30.07,South,187,4.0,13.0,74,0.00,,FEW,0.00,VWS V14.01,2013-06-12 23:29:00,
2013-06-12 16:34:00,57.5,46.6,30.07,SSW,193,1.0,12.0,67,0.00,,FEW,0.00,VWS V14.01,2013-06-12 23:34:00,
2013-06-12 16:39:00,57.0,45.8,30.07,South,177,9.0,12.0,66,0.00,,FEW,0.00,VWS V14.01,2013-06-12 23:39:00,
2013-06-12 16:44:00,56.7,46.3,30.07,SSW,192,0.0,12.0,68,0.00,,FEW,0.00,VWS V14.01,2013-06-12 23:44:00,
2013-06-12 16:49:00,56.5,46.1,30.07,SSW,193,3.0,12.0,68,0.00,,FEW,0.00,VWS V14.01,2013-06-12 23:49:00,
2013-06-12 16:54:00,56.6,48.1,30.07,South,182,4.0,12.0,73,0.00,,FEW,0.00,VWS V14.01,2013-06-12 23:54:00,
2013-06-12 16:59:00,56.5,48.3,30.07,South,189,5.0,12.0,74,0.00,,FEW,0.00,VWS V14.01,2013-06-12 23:59:00,
2013-06-12 17:04:00,56.2,48.8,30.07,SSW,194,5.0,9.0,76,0.00,,FEW,0.00,VWS V14.01,2013-06-13 00:04:00,
2013-06-12 17:09:00,56.0,48.5,30.07,South,188,3.0,9.0,76,0.00,,FEW,0.00,VWS V14.01,2013-06-13 00:09:00,
2013-06-12 17:14:00,56.2,49.1,30.07,SE,135,3.0,9.0,77,0.00,,FEW,0.00,VWS V14.01,2013-06-13 00:14:00,
2013-06-12 17:19:00,56.3,48.8,30.07,South,188,2.0,9.0,76,0.00,,FEW,0.00,VWS V14.01,2013-06-13 00:19:00,
2013-06-12 17:25:00,56.0,47.8,30.07,South,184,2.0,9.0,74,0.00,,FEW,0.00,VWS V14.01,2013-06-13 00:25:00,
2013-06-12 17:29:00,55.7,47.5,30.07,SSW,194,4.0,9.0,74,0.00,,FEW,0.00,VWS V14.01,2013-06-13 00:29:00,
2013-06-12 17:35:00,55.9,48.1,30.07,South,177,4.0,6.0,75,0.00,,FEW,0.00,VWS V14.01,2013-06-13 00:35:00,
2013-06-12 17:40:00,56.0,47.8,30.07,SSW,202,2.0,6.0,74,0.00,,FEW,0.00,VWS V14.01,2013-06-13 00:40:00,
2013-06-12 17:45:00,56.5,48.0,30.07,South,188,0.0,6.0,73,0.00,,FEW,0.00,VWS V14.01,2013-06-13 00:45:00,
2013-06-12 17:50:00,56.5,46.8,30.07,SSW,207,0.0,6.0,70,0.00,,FEW,0.00,VWS V14.01,2013-06-13 00:50:00,
2013-06-12 17:55:00,56.7,47.4,30.07,SSW,198,2.0,6.0,71,0.00,,FEW,0.00,VWS V14.01,2013-06-13 00:55:00,
2013-06-12 18:00:00,57.0,46.9,30.06,South,189,2.0,3.0,69,0.00,,FEW,0.00,VWS V14.01,2013-06-13 01:00:00,
2013-06-12 18:05:00,57.0,47.3,30.06,South,185,2.0,5.0,70,0.00,,FEW,0.00,VWS V14.01,2013-06-13 01:05:00,
2013-06-12 18:10:00,57.2,47.9,30.06,SE,140,1.0,6.0,71,0.00,,FEW,0.00,VWS V14.01,2013-06-13 01:10:00,
2013-06-12 18:15:00,57.3,47.2,30.06,SSW,195,1.0,6.0,69,0.00,,FEW,0.00,VWS V14.01,2013-06-13 01:15:00,
2013-06-12 18:20:00,57.0,46.9,30.06,South,188,0.0,7.0,69,0.00,,FEW,0.00,VWS V14.01,2013-06-13 01:20:00,
2013-06-12 18:25:00,57.2,47.1,30.06,South,177,3.0,7.0,69,0.00,,FEW,0.00,VWS V14.01,2013-06-13 01:25:00,
2013-06-12 18:30:00,57.2,47.1,30.06,SE,133,1.0,4.0,69,0.00,,FEW,0.00,VWS V14.01,2013-06-13 01:30:00,
2013-06-12 18:35:00,57.0,47.3,30.06,SSW,197,3.0,6.0,70,0.00,,FEW,0.00,VWS V14.01,2013-06-13 01:35:00,
2013-06-12 18:40:00,57.0,47.3,30.06,SSW,192,3.0,6.0,70,0.00,,FEW,0.00,VWS V14.01,2013-06-13 01:40:00,
2013-06-12 18:45:00,56.9,46.8,30.06,South,177,1.0,6.0,69,0.00,,FEW,0.00,VWS V14.01,2013-06-13 01:45:00,
2013-06-12 18:50:00,56.9,46.8,30.06,South,177,1.0,6.0,69,0.00,,FEW,0.00,VWS V14.01,2013-06-13 01:50:00,
2013-06-12 18:55:00,56.9,46.1,30.06,South,177,0.0,6.0,67,0.00,,FEW,0.00,VWS V14.01,2013-06-13 01:55:00,
2013-06-12 19:00:00,56.9,46.5,30.06,SSE,159,0.0,0.0,68,0.00,,FEW,0.00,VWS V14.01,2013-06-13 02:00:00,
2013-06-12 19:05:00,56.9,46.5,30.06,SSE,159,0.0,0.0,68,0.00,,FEW,0.00,VWS V14.01,2013-06-13 02:05:00,
2013-06-12 19:10:00,56.9,46.5,30.06,SSE,159,0.0,1.0,68,0.00,,FEW,0.00,VWS V14.01,2013-06-13 02:10:00,
2013-06-12 19:15:00,56.9,47.2,30.06,SSE,159,0.0,1.0,70,0.00,,FEW,0.00,VWS V14.01,2013-06-13 02:15:00,
2013-06-12 19:20:00,56.9,47.6,30.06,SSE,153,0.0,1.0,71,0.00,,FEW,0.00,VWS V14.01,2013-06-13 02:20:00,
2013-06-12 19:25:00,56.6,47.3,30.06,SSW,196,1.0,4.0,71,0.00,,FEW,0.00,VWS V14.01,2013-06-13 02:25:00,
2013-06-12 19:30:00,56.0,47.5,30.07,South,181,3.0,3.0,73,0.00,,FEW,0.00,VWS V14.01,2013-06-13 02:30:00,
2013-06-12 19:35:00,55.3,47.5,30.07,SSW,192,6.0,10.0,75,0.00,,FEW,0.00,VWS V14.01,2013-06-13 02:35:00,
2013-06-12 19:40:00,54.7,49.0,30.07,SSW,193,5.0,10.0,81,0.01,,FEW,0.01,VWS V14.01,2013-06-13 02:40:00,
2013-06-12 19:45:00,54.1,49.4,30.08,South,183,1.0,10.0,84,0.02,,FEW,0.02,VWS V14.01,2013-06-13 02:45:00,
2013-06-12 19:51:00,53.5,49.4,30.08,ESE,120,1.0,10.0,86,0.03,,FEW,0.03,VWS V14.01,2013-06-13 02:51:00,
2013-06-12 19:56:00,53.2,49.7,30.08,SE,126,1.0,10.0,88,0.05,,FEW,0.05,VWS V14.01,2013-06-13 02:56:00,
2013-06-12 20:01:00,52.8,49.3,30.07,South,190,0.0,1.0,88,0.06,,FEW,0.06,VWS V14.01,2013-06-13 03:01:00,
2013-06-12 20:06:00,52.5,49.4,30.07,SE,141,0.0,3.0,89,0.08,,FEW,0.08,VWS V14.01,2013-06-13 03:06:00,
2013-06-12 20:11:00,52.2,49.1,30.07,SE,124,0.0,3.0,89,0.08,,FEW,0.08,VWS V14.01,2013-06-13 03:11:00,
2013-06-12 20:16:00,52.0,49.2,30.07,SE,127,0.0,3.0,90,0.08,,FEW,0.08,VWS V14.01,2013-06-13 03:16:00,
2013-06-12 20:21:00,51.9,49.1,30.07,SE,127,0.0,3.0,90,0.08,,FEW,0.08,VWS V14.01,2013-06-13 03:21:00,
2013-06-12 20:26:00,51.9,49.1,30.07,SE,129,0.0,3.0,90,0.08,,FEW,0.08,VWS V14.01,2013-06-13 03:26:00,
2013-06-12 20:31:00,51.9,49.4,30.07,SE,139,0.0,1.0,91,0.08,,FEW,0.08,VWS V14.01,2013-06-13 03:31:00,
2013-06-12 20:36:00,51.9,49.4,30.07,ESE,122,1.0,1.0,91,0.09,,FEW,0.09,VWS V14.01,2013-06-13 03:36:00,
2013-06-12 20:41:00,51.7,49.2,30.07,ESE,122,1.0,1.0,91,0.09,,FEW,0.09,VWS V14.01,2013-06-13 03:41:00,
2013-06-12 20:46:00,51.7,49.2,30.07,ESE,112,0.0,3.0,91,0.09,,FEW,0.09,VWS V14.01,2013-06-13 03:46:00,
2013-06-12 20:51:00,51.7,49.5,30.07,ESE,112,0.0,3.0,92,0.09,,FEW,0.09,VWS V14.01,2013-06-13 03:51:00,
2013-06-12 20:56:00,51.7,49.5,30.07,ESE,112,0.0,3.0,92,0.09,,FEW,0.09,VWS V14.01,2013-06-13 03:56:00,
2013-06-12 21:01:00,51.7,49.5,30.07,ESE,112,0.0,0.0,92,0.03,,FEW,0.09,VWS V14.01,2013-06-13 04:01:00,
2013-06-12 21:04:00,51.7,49.5,30.07,ESE,112,0.0,0.0,92,0.03,,FEW,0.09,VWS V14.01,2013-06-13 04:04:00,
2013-06-12 21:09:00,51.9,49.7,30.07,ESE,112,0.0,0.0,92,0.03,,FEW,0.09,VWS V14.01,2013-06-13 04:09:00,
2013-06-12 21:14:00,51.7,49.5,30.07,ESE,112,0.0,0.0,92,0.03,,FEW,0.09,VWS V14.01,2013-06-13 04:14:00,
2013-06-12 21:19:00,51.6,49.4,30.07,ESE,112,0.0,1.0,92,0.03,,FEW,0.09,VWS V14.01,2013-06-13 04:19:00,
2013-06-12 21:24:00,51.4,49.2,30.07,SSE,149,0.0,1.0,92,0.03,,FEW,0.09,VWS V14.01,2013-06-13 04:24:00,
2013-06-12 21:29:00,51.6,49.4,30.08,SSE,149,1.0,2.0,92,0.03,,FEW,0.09,VWS V14.01,2013-06-13 04:29:00,
2013-06-12 21:34:00,51.7,49.5,30.08,SSE,149,0.0,0.0,92,0.01,,FEW,0.09,VWS V14.01,2013-06-13 04:34:00,
2013-06-12 21:39:00,51.7,49.8,30.08,SSE,149,0.0,0.0,93,0.01,,FEW,0.09,VWS V14.01,2013-06-13 04:39:00,
2013-06-12 21:44:00,51.9,49.7,30.08,SSE,149,0.0,0.0,92,0.01,,FEW,0.09,VWS V14.01,2013-06-13 04:44:00,
2013-06-12 21:49:00,51.9,49.9,30.08,SSE,149,0.0,0.0,93,0.01,,FEW,0.09,VWS V14.01,2013-06-13 04:49:00,
2013-06-12 21:54:00,51.9,49.9,30.08,SSE,149,0.0,0.0,93,0.01,,FEW,0.09,VWS V14.01,2013-06-13 04:54:00,
2013-06-12 21:59:00,51.9,49.9,30.08,SSE,149,0.0,0.0,93,0.01,,FEW,0.09,VWS V14.01,2013-06-13 04:59:00,
2013-06-12 22:04:00,51.9,49.9,30.08,SSE,149,0.0,0.0,93,0.00,,FEW,0.09,VWS V14.01,2013-06-13 05:04:00,
2013-06-12 22:09:00,51.9,49.9,30.08,SSE,149,0.0,0.0,93,0.00,,FEW,0.09,VWS V14.01,2013-06-13 05:09:00,
2013-06-12 22:14:00,51.7,49.8,30.08,SSE,149,0.0,0.0,93,0.00,,FEW,0.09,VWS V14.01,2013-06-13 05:14:00,
2013-06-12 22:19:00,51.7,49.8,30.08,SSE,149,0.0,0.0,93,0.00,,FEW,0.09,VWS V14.01,2013-06-13 05:19:00,
2013-06-12 22:24:00,51.7,49.8,30.08,SSE,149,0.0,0.0,93,0.00,,FEW,0.09,VWS V14.01,2013-06-13 05:24:00,
2013-06-12 22:29:00,51.7,49.8,30.08,SSE,149,0.0,0.0,93,0.00,,FEW,0.09,VWS V14.01,2013-06-13 05:29:00,
2013-06-12 22:34:00,51.7,49.8,30.08,SSE,149,0.0,0.0,93,0.00,,FEW,0.09,VWS V14.01,2013-06-13 05:34:00,
2013-06-12 22:39:00,51.7,49.8,30.08,SSE,149,0.0,0.0,93,0.00,,FEW,0.09,VWS V14.01,2013-06-13 05:39:00,
2013-06-12 22:44:00,51.7,49.8,30.09,SSE,149,0.0,0.0,93,0.00,,FEW,0.09,VWS V14.01,2013-06-13 05:44:00,
2013-06-12 22:49:00,51.7,49.8,30.09,SSE,149,0.0,0.0,93,0.00,,FEW,0.09,VWS V14.01,2013-06-13 05:49:00,
2013-06-12 22:54:00,51.7,50.0,30.09,SSE,149,0.0,0.0,94,0.00,,FEW,0.09,VWS V14.01,2013-06-13 05:54:00,
2013-06-12 23:00:00,51.6,49.9,30.08,SSE,149,0.0,0.0,94,0.00,,FEW,0.09,VWS V14.01,2013-06-13 06:00:00,
2013-06-12 23:05:00,51.6,49.9,30.08,SSE,149,0.0,0.0,94,0.00,,FEW,0.09,VWS V14.01,2013-06-13 06:05:00,
2013-06-12 23:10:00,51.6,49.9,30.08,SSE,149,0.0,0.0,94,0.00,,FEW,0.09,VWS V14.01,2013-06-13 06:10:00,
2013-06-12 23:15:00,51.6,49.9,30.08,SSE,149,0.0,0.0,94,0.00,,FEW,0.09,VWS V14.01,2013-06-13 06:15:00,
2013-06-12 23:20:00,51.6,49.9,30.08,SSE,149,0.0,0.0,94,0.00,,FEW,0.09,VWS V14.01,2013-06-13 06:20:00,
2013-06-12 23:25:00,51.6,49.9,30.08,SSE,149,0.0,0.0,94,0.00,,FEW,0.09,VWS V14.01,2013-06-13 06:25:00,
2013-06-12 23:30:00,51.6,49.9,30.08,SSE,149,0.0,0.0,94,0.00,,FEW,0.09,VWS V14.01,2013-06-13 06:30:00,
2013-06-12 23:35:00,51.7,50.0,30.08,SSE,149,0.0,0.0,94,0.00,,FEW,0.09,VWS V14.01,2013-06-13 06:35:00,
2013-06-12 23:40:00,51.7,50.0,30.08,SSE,149,0.0,0.0,94,0.00,,FEW,0.09,VWS V14.01,2013-06-13 06:40:00,
2013-06-12 23:45:00,51.7,50.0,30.08,SSE,149,0.0,0.0,94,0.00,,FEW,0.09,VWS V14.01,2013-06-13 06:45:00,
2013-06-12 23:50:00,51.7,50.0,30.08,SSE,149,0.0,0.0,94,0.00,,FEW,0.09,VWS V14.01,2013-06-13 06:50:00,
2013-06-12 23:55:00,51.7,50.0,30.08,SSE,149,0.0,0.0,94,0.00,,FEW,0.09,VWS V14.01,2013-06-13 06:55:00,